JUGNU

Last updated on Thu Feb 05 2026 00:03:11 GMT+0000 (Coordinated Universal Time)

1 37839U 11058B 26035.18517245 .00000508 00000+0 12586-3 0 9991 2 37839 19.9621 36.4340 0018739 48.1569 32.2845 14.13725490740181
UTC large
Height (km)
Speed (km/s)
/
Latitude / Longitude
Inclination (degrees)
Orbital Period (minutes)
Azimuth
Elevation
Range (km)
Doppler Factor

Next 0 passes for location: London (51.5072 / 0.1276)

Sorry there are no passes over London.